This is the latest recevied weather packets stored in our database for station/object KD0MAC. If no packets are shown the sender has not sent any weather packets the latest 10 day(s).
| Time | Temp. | Humidity | Pressure | Rain* | Wind** | Luminosity | Snow |
|---|---|---|---|---|---|---|---|
| 1777042041 | 12.78° C | 46% | 1012.5 hPa | 0 mm | - | 284 W/m² | - |
| 1777041741 | 12.78° C | 47% | 1012.5 hPa | 0 mm | - | 273 W/m² | - |
| 1777041441 | 12.78° C | 47% | 1012.5 hPa | 0 mm | - | 258 W/m² | - |
| 1777041142 | 12.22° C | 49% | 1012.5 hPa | 0 mm | - | 246 W/m² | - |
| 1777040841 | 11.67° C | 50% | 1012.5 hPa | 0 mm | - | 233 W/m² | - |
| 1777040541 | 11.67° C | 51% | 1012.5 hPa | 0 mm | - | 220 W/m² | - |
| 1777040240 | 11.11° C | 51% | 1012.5 hPa | 0 mm | - | 207 W/m² | - |
| 1777039940 | 11.11° C | 52% | 1012.5 hPa | 0 mm | - | 195 W/m² | - |
| 1777039640 | 11.11° C | 52% | 1012.5 hPa | 0 mm | - | 184 W/m² | - |
| 1777039341 | 10.56° C | 54% | 1012.2 hPa | 0 mm | - | 182 W/m² | - |
| 1777039041 | 10.56° C | 55% | 1012.2 hPa | 0 mm | - | 170 W/m² | - |
| 1777038742 | 10° C | 57% | 1012.2 hPa | 0 mm | - | 157 W/m² | - |
| 1777038441 | 9.44° C | 59% | 1012.2 hPa | 0 mm | - | 145 W/m² | - |
| 1777038142 | 8.89° C | 59% | 1012.2 hPa | 0 mm | - | 133 W/m² | - |
| 1777037841 | 8.89° C | 60% | 1011.9 hPa | 0 mm | - | 121 W/m² | - |
| 1777037541 | 8.33° C | 61% | 1011.9 hPa | 0 mm | - | 109 W/m² | - |
| 1777037240 | 8.33° C | 62% | 1011.5 hPa | 0 mm | - | 94 W/m² | - |
| 1777036941 | 8.33° C | 62% | 1011.2 hPa | 0 mm | - | 42 W/m² | - |
| 1777036641 | 7.78° C | 63% | 1010.8 hPa | 0 mm | - | 37 W/m² | - |
| 1777036340 | 7.78° C | 63% | 1010.8 hPa | 0 mm | - | 41 W/m² | - |
| 1777036041 | 7.22° C | 64% | 1010.8 hPa | 0 mm | - | 37 W/m² | - |
| 1777035740 | 7.22° C | 65% | 1010.8 hPa | 0 mm | - | 36 W/m² | - |
| 1777035444 | 6.67° C | 66% | 1010.8 hPa | 0 mm | - | 30 W/m² | - |
| 1777035140 | 6.67° C | 67% | 1010.8 hPa | 0 mm | - | 30 W/m² | - |
| 1777034841 | 6.11° C | 68% | 1010.8 hPa | 0 mm | - | 28 W/m² | - |
* Rain latest hour (hover to see other rain measurements)
** Current wind speed in m/s (hover to see current wind gust speed)